sat.trackr.live / text

‹ back to catalog

STARLINK-36210

NORAD 67174 · 2025-303M

PAYLOAD ACTIVE UNKNOWN

§ Identity

Operator
Country
US
Launch date
2025-12-17
Launch site
AFETR
Launch vehicle
Mass (kg)
RCS (m²)

Purposes: comms

External: N2YO · Heavens-Above · Gunter

§ Orbital elements

Epoch: 2026-05-24T14:27:35.260416Z

Period
94.27 min
Inclination
43.0007°
Eccentricity
0.0001628
Mean motion
15.27581506 rev/d
Perigee alt
481.9 km
Apogee alt
484.2 km
Semi-major
6,861.2 km
B*
3.0108e-4
RAAN
242.1226°
Arg perigee
271.0626°
Mean anomaly
89.0039°
Rev number
2,434

§ Raw data

STARLINK-362101 67174U 25303M   26144.60249144  .00008032  00000+0  30108-3 0  99922 67174  43.0007 242.1226 0001628 271.0626  89.0039 15.27581506 24343

JSON: /api/v1/satellites/67174 · /tle

For live sub-satellite position, see the globe view (requires WebGL).

§ Visibility from observer

Set your observer location to see the next 7 days of passes ≥ 10°. The values pass through the URL so the page stays shareable.

No JS? Fill the form by hand. The geolocation button needs JavaScript.